Weather History for Lamoni, IA

Change the Weather History Date:

Friday, October 12, 2012

  Actual Average Record
Temperature  
Mean Temperature 48 °F 54 °F  
Max Temperature 58 °F 65 °F 87 °F (1975)
Min Temperature 38 °F 44 °F 28 °F (2006)
Degree Days  
Heating Degree Days 17 11  
Month to date heating degree days 181 111  
Since 1 July heating degree days 290 211  
Cooling Degree Days 0 0  
Month to date cooling degree days 0 11  
Year to date cooling degree days 1292 944  
Moisture  
Dew Point 33 °F    
Average Humidity 55    
Maximum Humidity 77    
Minimum Humidity 32    
Precipitation  
Precipitation T in 0.10 in 0.95 in (1969)
Month to date precipitation 0.22 0.91  
Sea Level Pressure  
Sea Level Pressure 30.25 in    
Wind  
Wind Speed 9 mph (East)    
Max Wind Speed 20 mph    
Max Gust Speed 25 mph    
Visibility 10 miles    
Events Rain , Thunderstorm    
T = Trace of Precipitation, MM = Missing Value Source: NWS Daily Summary

Daily Weather History Graph

Daily Weather History Graph

Search for Another Location

Airport:

Trip Planner

Search our weather history database for the weather conditions in past years. The results will help you decide how hot, cold, wet, or windy it might be!

Date:

Astronomy

Oct. 12, 2012 Rise Set
Actual Time 7:24 AM CDT 6:39 PM CDT
Civil Twilight 6:56 AM CDT 7:06 PM CDT
Nautical Twilight 6:24 AM CDT 7:38 PM CDT
Astronomical Twilight 5:53 AM CDT 8:09 PM CDT
Moon 4:06 AM CDT (10/12) 4:50 PM CDT (10/12)
Length of Visible Light 12h 10m
Length of Day
11h 15m
Waning Crescent, 10% of the Moon is Illuminated
Oct 12
Waning Crescent
Oct 15
New
Oct 21
First Quarter
Oct 29
Full
Nov 6
Last Quarter

Hourly Weather History & Observations

Time (CDT) Temp. Windchill Dew Point Humidity Pressure Visibility Wind Dir Wind Speed Gust Speed Precip Events Conditions
12:53 AM 46.9 °F - 28.0 °F 48% 30.31 in 10.0 mi NNE 12.7 mph 24.2 mph N/A   Overcast
1:53 AM 46.9 °F - 26.1 °F 44% 30.32 in 10.0 mi NE 13.8 mph - N/A   Overcast
3:53 AM 46.0 °F 39.9 °F 24.1 °F 42% 30.32 in 10.0 mi NE 13.8 mph - N/A   Overcast
4:53 AM 44.1 °F 37.7 °F 21.9 °F 42% 30.32 in 10.0 mi NE 12.7 mph - N/A   Mostly Cloudy
5:53 AM 42.1 °F 37.1 °F 21.9 °F 45% 30.33 in 10.0 mi NE 8.1 mph - N/A   Clear
6:53 AM 39.9 °F 34.5 °F 23.0 °F 51% 30.36 in 10.0 mi ENE 8.1 mph - N/A   Clear
7:53 AM 37.9 °F 32.7 °F 24.1 °F 57% 30.39 in 10.0 mi ENE 6.9 mph - N/A   Clear
9:53 AM 46.0 °F 42.5 °F 25.0 °F 44% 30.39 in 10.0 mi East 6.9 mph 17.3 mph N/A   Clear
12:53 PM 54.0 °F - 25.0 °F 33% 30.34 in 10.0 mi East 10.4 mph 17.3 mph N/A   Overcast
1:53 PM 55.9 °F - 26.1 °F 32% 30.30 in 10.0 mi ESE 11.5 mph 19.6 mph N/A   Partly Cloudy
2:53 PM 57.9 °F - 28.0 °F 32% 30.26 in 10.0 mi SE 8.1 mph 16.1 mph N/A   Scattered Clouds
3:53 PM 57.9 °F - 30.9 °F 36% 30.23 in 10.0 mi ESE 8.1 mph - N/A   Mostly Cloudy
5:53 PM 57.0 °F - 35.1 °F 44% 30.18 in 10.0 mi SE 10.4 mph 16.1 mph 0.00 in Rain Light Rain
6:53 PM 53.1 °F - 43.0 °F 69% 30.18 in 10.0 mi SE 10.4 mph 17.3 mph 0.00 in   Overcast
7:22 PM 51.8 °F - 42.8 °F 71% 30.18 in 10.0 mi ESE 4.6 mph - N/A Thunderstorm Overcast
7:36 PM 51.8 °F - 44.6 °F 76% 30.17 in 10.0 mi ESE 5.8 mph - N/A Thunderstorm Overcast
7:53 PM 51.1 °F - 44.1 °F 77% 30.18 in 10.0 mi ESE 8.1 mph - 0.00 in   Overcast
8:53 PM 51.1 °F - 44.1 °F 77% 30.16 in 10.0 mi SE 5.8 mph - N/A   Overcast
9:53 PM 51.1 °F - 45.0 °F 80% 30.13 in 10.0 mi SE 4.6 mph - 0.00 in Rain Light Rain
10:53 PM 52.0 °F - 45.0 °F 77% 30.13 in 10.0 mi South 5.8 mph - 0.00 in   Overcast
11:53 PM 54.0 °F - 45.0 °F 72% 30.08 in 10.0 mi SE 8.1 mph - N/A   Overcast